Waukegan, IL

10:47 PM CDT on July 27, 2017 (GMT -0500)
Waukegan Regional

Weather History for KUGN - March, 2013

Change the Weather History Date:

Wednesday, March 6, 2013

  Actual Average Record
Temperature  
Mean Temperature 31 °F -  
Max Temperature 35 °F 40 °F 66 °F (2012)
Min Temperature 27 °F 24 °F -5 °F (2015)
Degree Days  
Heating Degree Days 34 33  
Month to date heating degree days 241 203  
Since 1 July heating degree days 4842 5149  
Cooling Degree Days 0 0  
Month to date cooling degree days 0 0  
Year to date cooling degree days 0 0  
Moisture  
Dew Point 25 °F    
Average Humidity 77    
Maximum Humidity 85    
Minimum Humidity 69    
Precipitation  
Precipitation T in 0.06 in 0.30 in (2006)
Month to date precipitation 0.01 0.37  
Year to date precipitation 2.17 3.42  
Sea Level Pressure  
Sea Level Pressure 30.22 in    
Wind  
Wind Speed 8 mph (NW)    
Max Wind Speed 17 mph    
Max Gust Speed 25 mph    
Visibility 9 miles    
Events      
T = Trace of Precipitation, MM = Missing Value Source: NWS Daily Summary

Daily Weather History Graph

Daily Weather History Graph

Search for Another Location

Airport or City:

Trip Planner

Search our weather history database for the weather conditions in past years. The results will help you decide how hot, cold, wet, or windy it might be!

Date:

Astronomy

Mar. 06, 2013 Rise Set
Actual Time 6:18 AM CST 5:47 PM CST
Civil Twilight 5:50 AM CST 6:15 PM CST
Nautical Twilight 5:17 AM CST 6:48 PM CST
Astronomical Twilight 4:45 AM CST 7:21 PM CST
Moon 2:32 AM CST (3/6) 12:24 PM CST (3/6)
Length of Visible Light 12h 25m
Length of Day
11h 29m
Waning Crescent, 29% of the Moon is Illuminated
Mar 6
Waning Crescent
Mar 11
New
Mar 19
First Quarter
Mar 27
Full
Apr 2
Last Quarter

Hourly Weather History & Observations

Time (CST) Temp. Windchill Dew Point Humidity Pressure Visibility Wind Dir Wind Speed Gust Speed Precip Events Conditions
12:39 AM 30.2 °F 21.9 °F 26.6 °F 86% 29.99 in 10.0 mi NNW 9.2 mph 16.1 mph N/A   Overcast
12:52 AM 30.9 °F 21.7 °F 26.1 °F 82% 30.04 in 10.0 mi NNW 11.5 mph - N/A   Overcast
1:52 AM 28.9 °F 19.8 °F 25.0 °F 85% 30.07 in 10.0 mi NNW 10.4 mph 20.7 mph N/A   Overcast
2:52 AM 28.9 °F 18.2 °F 24.1 °F 82% 30.08 in 10.0 mi NW 13.8 mph 20.7 mph N/A   Overcast
3:52 AM 28.0 °F 21.7 °F 23.0 °F 81% 30.12 in 8.0 mi NW 5.8 mph 17.3 mph N/A   Overcast
4:52 AM 27.0 °F 17.3 °F 23.0 °F 85% 30.15 in 10.0 mi NW 10.4 mph 18.4 mph N/A   Overcast
5:37 AM 26.6 °F 16.2 °F 23.0 °F 86% 30.12 in 9.0 mi NNW 11.5 mph 18.4 mph N/A   Overcast
5:52 AM 27.0 °F 18.0 °F 23.0 °F 85% 30.17 in 10.0 mi NNW 9.2 mph 17.3 mph N/A   Overcast
6:52 AM 28.0 °F 21.7 °F 23.0 °F 81% 30.18 in 8.0 mi NNW 5.8 mph - N/A   Overcast
7:52 AM 28.0 °F 20.0 °F 24.1 °F 85% 30.22 in 6.0 mi WNW 8.1 mph - N/A   Overcast
8:12 AM 28.4 °F 18.5 °F 24.8 °F 86% 30.18 in 3.0 mi WNW 11.5 mph 17.3 mph N/A   Overcast
8:23 AM 28.4 °F 19.7 °F 24.8 °F 86% 30.18 in 2.5 mi WNW 9.2 mph 17.3 mph 0.00 in   Overcast
8:44 AM 28.4 °F 18.5 °F 24.8 °F 86% 30.19 in 4.0 mi WNW 11.5 mph 17.3 mph 0.00 in   Overcast
8:52 AM 28.9 °F 20.4 °F 24.1 °F 82% 30.23 in 4.0 mi NW 9.2 mph - 0.00 in   Haze
9:52 AM 30.0 °F 21.7 °F 25.0 °F 82% 30.24 in 8.0 mi NW 9.2 mph - 0.00 in   Overcast
10:34 AM 30.2 °F 21.9 °F 24.8 °F 80% 30.21 in 10.0 mi NW 9.2 mph - N/A   Overcast
10:52 AM 32.0 °F 23.6 °F 25.0 °F 75% 30.25 in 10.0 mi NW 10.4 mph - 0.01 in   Overcast
11:31 AM 33.8 °F 25.8 °F 26.6 °F 75% 30.21 in 10.0 mi NNW 10.4 mph - 0.03 in   Overcast
11:39 AM 33.8 °F 26.4 °F 26.6 °F 75% 30.21 in 10.0 mi NW 9.2 mph - 0.04 in   Overcast
11:52 AM 33.1 °F 26.1 °F 26.1 °F 75% 30.25 in 10.0 mi NW 8.1 mph - 0.06 in   Overcast
12:18 PM 33.8 °F 26.4 °F 26.6 °F 75% 30.21 in 10.0 mi NW 9.2 mph - 0.04 in   Overcast
12:25 PM 33.8 °F 28.6 °F 26.6 °F 75% 30.21 in 10.0 mi NNW 5.8 mph - 0.05 in   Overcast
12:52 PM 34.0 °F 25.5 °F 26.1 °F 73% 30.24 in 10.0 mi NW 11.5 mph 17.3 mph 0.10 in   Overcast
1:52 PM 34.0 °F 26.0 °F 26.1 °F 73% 30.25 in 10.0 mi WNW 10.4 mph 16.1 mph 0.06 in   Overcast
2:49 PM 33.8 °F 27.0 °F 26.6 °F 75% 30.22 in 10.0 mi NW 8.1 mph - 0.02 in   Overcast
2:52 PM 34.0 °F 28.8 °F 26.1 °F 73% 30.26 in 10.0 mi NW 5.8 mph - 0.03 in   Overcast
3:52 PM 33.1 °F 25.5 °F 26.1 °F 75% 30.27 in 10.0 mi NW 9.2 mph - N/A   Overcast
4:52 PM 33.1 °F 26.9 °F 25.0 °F 72% 30.28 in 10.0 mi NW 6.9 mph - N/A   Overcast
5:34 PM 33.8 °F 27.7 °F 24.8 °F 70% 30.25 in 10.0 mi WNW 6.9 mph - N/A   Overcast
5:52 PM 32.0 °F 27.5 °F 25.0 °F 75% 30.30 in 10.0 mi NW 4.6 mph - N/A   Overcast
6:21 PM 32.0 °F 25.6 °F 24.8 °F 75% 30.25 in 10.0 mi NW 6.9 mph - N/A   Overcast
6:40 PM 32.0 °F 25.6 °F 24.8 °F 75% 30.26 in 10.0 mi NW 6.9 mph - N/A   Overcast
6:52 PM 32.0 °F 28.7 °F 26.1 °F 79% 30.31 in 10.0 mi West 3.5 mph - N/A   Overcast
7:52 PM 32.0 °F 27.5 °F 26.1 °F 79% 30.32 in 10.0 mi WNW 4.6 mph - N/A   Overcast
8:52 PM 30.9 °F 25.2 °F 25.0 °F 79% 30.32 in 10.0 mi WNW 5.8 mph - N/A   Overcast
9:52 PM 30.9 °F 26.2 °F 25.0 °F 79% 30.32 in 10.0 mi NW 4.6 mph - N/A   Overcast
10:52 PM 30.9 °F 27.5 °F 25.0 °F 79% 30.32 in 10.0 mi WNW 3.5 mph - N/A   Overcast
11:52 PM 30.9 °F 26.2 °F 25.0 °F 79% 30.31 in 10.0 mi WNW 4.6 mph - N/A   Overcast